QPF
0.00 0.00 0.00 0.00 0.00 0.00 0.00 0.00 0.00 0.00 0.00 0.00 0.00 0.00 0.00 0.00 0.00 0.00 0.00 0.00 0.00 0.00 0.00 0.00 0.00 0.00 0.00 0.00 0.00 0.00 0.00 0.00 0.00 0.00 0.00 0.00 0.00 0.00 0.00 0.00 0.00 0.00
0.00 0.00 0.00 0.00 0.00 0.00 0.00 0.00 0.00 0.00 0.00 0.00 0.00 0.00 0.00 0.00 0.00 0.00 0.00 0.00 0.00 0.00 0.00 0.00 0.00 0.00 0.00 0.00 0.00 0.00 0.00 0.00 0.00 0.00 0.00 0.00 0.00 0.00 0.00 0.00 0.00 0.00
0.00 0.00 0.00 0.00 0.00 0.00 0.00 0.00 0.00 0.00 0.00 0.00 0.00 0.00 0.00 0.00 0.00 0.00 0.00 0.00 0.00 0.00 0.00 0.00 0.00 0.00 0.00 0.00 0.00 0.00 0.00 0.00 0.00 0.00 0.00 0.00 0.00 0.00 0.00 0.00 0.00 0.00
0.00 0.00 0.00 0.00 0.00 0.00 0.00 0.00 0.00 0.00 0.00 0.00 0.00 0.00 0.00 0.00 0.00 0.00 0.00 0.00 0.00 0.00 0.00 0.00 0.00 0.00 0.00 0.00 0.00 0.00 0.00 0.00 0.00 0.00 0.00 0.00 0.00 0.00 0.00 0.00 0.00 0.00
0.00 0.00 0.00 0.00 0.00 0.00 0.00 0.00 0.00 0.00 0.00 0.00 0.00 0.00 0.00 0.00 0.00 0.00 0.00 0.00 0.00 0.00 0.00 0.00 0.00 0.00 0.00 0.00 0.00 0.00 0.00 0.00 0.00 0.00 0.00 0.00 0.00 0.00 0.00 0.00 0.00 0.00
0.00 0.00 0.00 0.00 0.00 0.00 0.00 0.00 0.00 0.00 0.00 0.00 0.00 0.00 0.00 0.00 0.00 0.00 0.00 0.00 0.00 0.00 0.00 0.00 0.00 0.00 0.00 0.00 0.00 0.00 0.00 0.00 0.00 0.00 0.00 0.00 0.00 0.00 0.00 0.00 0.00 0.00
0.00 0.00 0.00 0.00 0.00 0.00 0.00 0.00 0.00 0.00 0.00 0.00 0.00 0.00 0.00 0.00 0.00 0.00 0.00 0.00 0.00 0.00 0.00 0.00 0.00 0.00 0.00 0.00 0.00 0.00 0.00 0.00 0.00 0.00 0.00 0.00 0.00 0.00 0.00 0.00 0.00 0.00
0.00 0.00 0.00 0.00 0.00 0.00 0.00 0.00 0.00 0.00 0.00 0.00 0.00 0.00 0.00 0.00 0.00 0.00 0.00 0.00 0.00 0.00 0.00 0.00 0.00 0.00 0.00 0.00 0.00 0.00 0.00 0.00 0.00 0.00 0.00 0.00 0.00 0.00 0.00 0.00 0.00 0.00
0.00 0.00 0.00 0.00 0.00 0.00 0.00 0.00 0.00 0.00 0.00 0.00 0.00 0.00 0.00 0.00 0.00 0.00 0.00 0.00 0.01 0.01 0.01 0.01 0.01 0.00 0.00 0.00 0.00 0.00 0.00 0.00 0.00 0.00 0.00 0.00 0.00 0.00 0.00 0.00 0.00 0.00
0.00 0.00 0.00 0.00 0.00 0.00 0.00 0.00 0.00 0.00 0.00 0.00 0.00 0.00 0.00 0.00 0.00 0.00 0.00 0.00 0.01 0.01 0.01 0.01 0.01 0.01 0.01 0.00 0.00 0.00 0.00 0.00 0.00 0.00 0.00 0.00 0.00 0.00 0.00 0.00 0.00 0.00
0.00 0.00 0.00 0.00 0.00 0.00 0.00 0.00 0.01 0.01 0.01 0.01 0.01 0.00 0.00 0.00 0.00 0.00 0.01 0.03 0.03 0.02 0.01 0.01 0.01 0.01 0.01 0.00 0.00 0.00 0.00 0.00 0.00 0.00 0.00 0.00 0.00 0.00 0.00 0.00 0.00 0.00
0.00 0.00 0.00 0.00 0.00 0.01 0.01 0.01 0.01 0.02 0.02 0.01 0.01 0.01 0.01 0.01 0.01 0.01 0.01 0.02 0.02 0.03 0.04 0.04 0.02 0.01 0.00 0.00 0.00 0.00 0.00 0.00 0.00 0.00 0.00 0.00 0.00 0.00 0.00 0.00 0.00 0.00
0.00 0.00 0.00 0.01 0.01 0.01 0.01 0.02 0.02 0.02 0.02 0.03 0.02 0.02 0.02 0.02 0.02 0.01 0.01 0.01 0.01 0.02 0.04 0.05 0.06 0.06 0.03 0.00 0.00 0.00 0.00 0.00 0.00 0.00 0.00 0.00 0.00 0.00 0.00 0.00 0.00 0.00
0.00 0.00 0.00 0.01 0.01 0.01 0.02 0.02 0.02 0.03 0.03 0.04 0.04 0.04 0.03 0.03 0.04 0.07 0.06 0.04 0.03 0.02 0.01 0.01 0.01 0.01 0.01 0.00 0.00 0.00 0.00 0.00 0.00 0.00 0.00 0.00 0.00 0.00 0.00 0.00 0.00 0.00
0.00 0.00 0.00 0.00 0.01 0.01 0.01 0.02 0.02 0.02 0.03 0.03 0.04 0.04 0.04 0.03 0.03 0.04 0.06 0.08 0.08 0.06 0.04 0.04 0.03 0.01 0.00 0.00 0.00 0.00 0.00 0.00 0.00 0.00 0.00 0.00 0.00 0.00 0.00 0.00 0.00 0.00
0.00 0.00 0.00 0.00 0.00 0.00 0.00 0.01 0.01 0.01 0.01 0.01 0.01 0.01 0.02 0.02 0.03 0.03 0.03 0.02 0.02 0.02 0.02 0.04 0.03 0.02 0.01 0.01 0.00 0.00 0.00 0.00 0.00 0.00 0.00 0.00 0.00 0.00 0.00 0.00 0.00 0.00
0.00 0.00 0.00 0.00 0.00 0.00 0.00 0.00 0.00 0.00 0.00 0.00 0.01 0.01 0.01 0.01 0.02 0.04 0.03 0.02 0.01 0.01 0.00 0.00 0.01 0.01 0.01 0.01 0.00 0.00 0.00 0.00 0.00 0.00 0.00 0.00 0.00 0.00 0.00 0.00 0.00 0.00
0.00 0.00 0.00 0.00 0.00 0.00 0.00 0.00 0.00 0.00 0.00 0.00 0.00 0.01 0.01 0.01 0.01 0.02 0.03 0.04 0.06 0.04 0.01 0.00 0.00 0.00 0.00 0.00 0.00 0.00 0.00 0.00 0.00 0.00 0.00 0.00 0.00 0.00 0.00 0.00 0.00 0.00
0.00 0.00 0.00 0.00 0.00 0.00 0.00 0.00 0.00 0.00 0.00 0.00 0.00 0.00 0.01 0.01 0.01 0.02 0.02 0.02 0.04 0.06 0.07 0.04 0.01 0.00 0.00 0.00 0.00 0.00 0.00 0.00 0.00 0.00 0.00 0.00 0.00 0.00 0.00 0.00 0.00 0.00
0.00 0.00 0.00 0.00 0.00 0.00 0.00 0.00 0.00 0.01 0.00 0.01 0.01 0.01 0.01 0.01 0.01 0.01 0.02 0.03 0.03 0.03 0.04 0.05 0.05 0.03 0.01 0.00 0.00 0.00 0.00 0.00 0.00 0.00 0.00 0.00 0.00 0.00 0.00 0.00 0.00 0.00
0.00 0.00 0.00 0.00 0.00 0.00 0.00 0.00 0.00 0.00 0.00 0.00 0.00 0.00 0.00 0.00 0.00 0.00 0.01 0.01 0.02 0.04 0.04 0.02 0.02 0.02 0.01 0.00 0.00 0.00 0.00 0.00 0.00 0.00 0.00 0.00 0.00 0.00 0.00 0.00 0.00 0.00
0.00 0.00 0.00 0.00 0.00 0.00 0.00 0.00 0.00 0.00 0.00 0.00 0.00 0.00 0.00 0.00 0.00 0.00 0.00 0.01 0.01 0.02 0.03 0.03 0.03 0.02 0.01 0.00 0.00 0.00 0.00 0.00 0.00 0.00 0.00 0.00 0.00 0.00 0.00 0.00 0.00 0.00
0.00 0.00 0.00 0.00 0.00 0.00 0.00 0.00 0.00 0.00 0.00 0.00 0.00 0.00 0.00 0.01 0.01 0.01 0.00 0.00 0.01 0.02 0.02 0.01 0.01 0.01 0.01 0.00 0.00 0.00 0.00 0.00 0.00 0.00 0.00 0.00 0.00 0.00 0.00 0.00 0.00 0.00
0.00 0.00 0.00 0.00 0.00 0.00 0.00 0.00 0.00 0.00 0.00 0.00 0.00 0.00 0.00 0.00 0.00 0.01 0.01 0.01 0.00 0.00 0.01 0.01 0.01 0.01 0.01 0.00 0.00 0.00 0.00 0.00 0.00 0.00 0.00 0.00 0.00 0.00 0.00 0.00 0.00 0.00
0.00 0.00 0.00 0.00 0.00 0.00 0.00 0.00 0.00 0.00 0.00 0.00 0.00 0.00 0.00 0.01 0.01 0.01 0.01 0.01 0.01 0.01 0.00 0.00 0.00 0.00 0.00 0.00 0.00 0.00 0.00 0.00 0.00 0.00 0.00 0.00 0.00 0.00 0.00 0.00 0.00 0.00
0.00 0.00 0.00 0.00 0.00 0.00 0.00 0.00 0.00 0.00 0.00 0.00 0.00 0.01 0.01 0.00 0.00 0.00 0.01 0.01 0.00 0.00 0.00 0.00 0.00 0.00 0.00 0.00 0.00 0.00 0.00 0.00 0.00 0.00 0.00 0.00 0.00 0.00 0.00 0.00 0.00 0.00
MSLP
1015.05 1015.21 1015.41 1015.59 1015.65 1015.75 1015.93 1016.09 1016.21 1016.45 1016.59 1016.75 1017.05 1017.21 1017.35 1017.51 1017.93 1018.21 1018.51 1018.89 1019.23 1019.45 1019.59 1019.85 1020.19 1020.53 1020.87 1021.21 1021.47 1021.73 1022.01 1022.23 1022.47 1022.67 1022.89 1023.09 1023.35 1023.57 1023.81 1024.03 1024.23 1024.35
1014.55 1014.71 1014.93 1015.11 1015.27 1015.37 1015.43 1015.47 1015.65 1015.83 1016.05 1016.25 1016.53 1016.89 1017.25 1017.61 1017.89 1018.05 1018.31 1018.61 1018.91 1019.13 1019.21 1019.53 1019.87 1020.21 1020.61 1020.95 1021.23 1021.53 1021.99 1022.25 1022.45 1022.71 1022.91 1023.13 1023.39 1023.61 1023.91 1024.11 1024.33 1024.63
1014.05 1014.25 1014.43 1014.61 1014.69 1014.85 1015.01 1015.13 1015.35 1015.55 1015.77 1016.01 1016.37 1016.77 1017.19 1017.47 1017.73 1017.89 1018.05 1018.21 1018.55 1018.89 1019.09 1019.35 1019.73 1020.05 1020.37 1020.71 1021.03 1021.41 1021.81 1022.15 1022.47 1022.75 1022.97 1023.29 1023.55 1023.73 1024.03 1024.27 1024.49 1024.65
1013.61 1013.67 1013.83 1014.01 1014.21 1014.45 1014.69 1014.99 1015.23 1015.41 1015.67 1016.01 1016.19 1016.43 1016.79 1017.19 1017.53 1017.81 1018.05 1018.31 1018.39 1018.69 1019.03 1019.35 1019.65 1019.99 1020.29 1020.61 1020.91 1021.37 1021.73 1022.03 1022.39 1022.75 1023.11 1023.55 1023.71 1023.85 1024.15 1024.35 1024.59 1024.89
1013.39 1013.51 1013.61 1013.77 1014.01 1014.27 1014.51 1014.73 1014.91 1015.07 1015.33 1015.57 1015.93 1016.23 1016.63 1017.05 1017.41 1017.79 1018.11 1018.43 1018.51 1018.69 1019.03 1019.33 1019.61 1019.89 1020.21 1020.61 1020.97 1021.45 1021.87 1022.27 1022.61 1022.85 1023.23 1023.61 1023.79 1023.93 1024.25 1024.37 1024.55 1024.85
1013.29 1013.43 1013.63 1013.83 1013.99 1014.17 1014.37 1014.47 1014.59 1014.81 1015.05 1015.35 1015.59 1015.97 1016.35 1016.75 1017.15 1017.55 1017.93 1018.29 1018.59 1018.75 1018.97 1019.29 1019.61 1019.95 1020.23 1020.57 1021.01 1021.49 1021.93 1022.33 1022.63 1022.87 1023.31 1023.69 1023.87 1024.07 1024.29 1024.45 1024.55 1024.85
1013.11 1013.27 1013.43 1013.57 1013.75 1013.87 1014.07 1014.23 1014.39 1014.61 1014.83 1015.03 1015.45 1015.79 1016.11 1016.57 1016.93 1017.27 1017.67 1017.99 1018.33 1018.61 1018.81 1019.17 1019.55 1020.01 1020.31 1020.67 1021.07 1021.57 1022.03 1022.29 1022.65 1022.93 1023.39 1023.87 1023.93 1024.13 1024.39 1024.51 1024.63 1024.91
1013.07 1013.15 1013.27 1013.41 1013.57 1013.73 1013.89 1014.05 1014.21 1014.41 1014.61 1014.95 1015.21 1015.55 1015.87 1016.31 1016.69 1017.07 1017.41 1017.75 1018.05 1018.35 1018.65 1018.99 1019.33 1019.65 1019.99 1020.29 1020.95 1021.59 1022.11 1022.41 1022.75 1023.07 1023.55 1023.93 1023.97 1024.13 1024.39 1024.59 1024.71 1024.91
1013.19 1013.29 1013.43 1013.51 1013.63 1013.73 1013.89 1014.03 1014.19 1014.37 1014.57 1014.81 1015.13 1015.49 1015.79 1016.11 1016.57 1016.99 1017.33 1017.61 1017.91 1018.15 1018.41 1018.83 1019.23 1019.71 1020.03 1020.09 1020.57 1021.13 1021.73 1022.27 1022.67 1022.97 1023.41 1023.71 1023.85 1024.09 1024.25 1024.53 1024.77 1024.97
1013.23 1013.37 1013.51 1013.63 1013.71 1013.79 1013.95 1014.11 1014.29 1014.45 1014.63 1014.85 1015.15 1015.59 1015.89 1016.27 1016.51 1016.87 1017.21 1017.51 1017.77 1018.05 1018.25 1018.59 1019.05 1019.45 1019.85 1020.09 1020.31 1020.77 1021.33 1021.93 1022.45 1022.75 1023.17 1023.41 1023.57 1023.91 1024.15 1024.31 1024.53 1024.97
1013.35 1013.49 1013.57 1013.73 1013.79 1013.89 1014.03 1014.23 1014.39 1014.59 1014.77 1014.91 1015.31 1015.61 1015.83 1016.21 1016.59 1016.83 1017.07 1017.35 1017.63 1017.87 1018.11 1018.41 1018.73 1019.03 1019.43 1019.93 1020.23 1020.51 1020.97 1021.53 1022.05 1022.37 1022.81 1023.19 1023.47 1023.65 1023.83 1024.03 1024.39 1024.57
1013.57 1013.69 1013.79 1013.85 1013.95 1014.07 1014.19 1014.37 1014.55 1014.73 1014.91 1015.07 1015.25 1015.51 1015.93 1016.17 1016.37 1016.77 1016.97 1017.21 1017.41 1017.69 1017.87 1018.15 1018.55 1018.81 1018.99 1019.41 1019.85 1020.37 1020.91 1021.41 1021.75 1022.03 1022.45 1022.95 1023.37 1023.59 1023.71 1023.87 1024.09 1024.53
1013.65 1013.75 1013.85 1013.93 1014.01 1014.05 1014.17 1014.35 1014.55 1014.81 1015.01 1015.23 1015.53 1015.63 1015.89 1016.29 1016.59 1016.69 1016.87 1016.97 1017.15 1017.37 1017.77 1018.15 1018.53 1018.85 1019.23 1019.45 1019.69 1020.07 1020.59 1021.13 1021.59 1021.87 1022.27 1022.77 1023.17 1023.41 1023.63 1023.81 1024.05 1024.37
1013.67 1013.79 1013.85 1013.97 1014.13 1014.31 1014.47 1014.65 1014.87 1015.07 1015.23 1015.51 1015.73 1015.85 1016.09 1016.25 1016.47 1016.69 1016.87 1017.03 1017.17 1017.13 1017.23 1017.67 1018.19 1018.61 1019.07 1019.31 1019.49 1019.87 1020.41 1020.91 1021.17 1021.45 1021.99 1022.57 1023.05 1023.37 1023.55 1023.73 1023.99 1024.29
1013.83 1013.93 1014.07 1014.17 1014.23 1014.33 1014.43 1014.61 1014.85 1015.09 1015.39 1015.59 1015.81 1015.99 1016.17 1016.29 1016.41 1016.61 1016.95 1017.15 1017.37 1017.61 1017.63 1017.71 1017.93 1018.27 1018.65 1018.91 1019.35 1019.89 1020.17 1020.63 1021.05 1021.25 1021.71 1022.37 1022.97 1023.35 1023.61 1023.79 1024.05 1024.29
1014.01 1014.13 1014.25 1014.43 1014.53 1014.53 1014.61 1014.77 1014.89 1015.11 1015.29 1015.49 1015.69 1015.91 1016.15 1016.41 1016.61 1016.79 1016.91 1016.99 1017.21 1017.57 1017.77 1017.83 1018.03 1018.25 1018.47 1018.63 1018.85 1019.31 1019.93 1020.41 1020.95 1021.23 1021.61 1022.15 1022.71 1023.25 1023.67 1023.91 1024.09 1024.31
1014.25 1014.41 1014.57 1014.55 1014.65 1014.83 1015.03 1015.13 1015.23 1015.39 1015.51 1015.67 1015.91 1016.11 1016.29 1016.53 1016.73 1016.91 1017.11 1017.29 1017.45 1017.59 1017.73 1017.81 1017.87 1018.09 1018.41 1018.79 1019.13 1019.43 1019.83 1020.15 1020.47 1021.07 1021.53 1022.01 1022.43 1022.77 1023.27 1023.81 1024.25 1024.55
1014.29 1014.49 1014.59 1014.73 1014.93 1015.01 1015.17 1015.35 1015.53 1015.61 1015.71 1015.91 1016.13 1016.25 1016.43 1016.61 1016.75 1016.93 1017.17 1017.39 1017.59 1017.83 1017.97 1017.93 1017.93 1017.97 1017.99 1018.35 1018.81 1019.27 1019.71 1020.01 1020.27 1020.67 1021.33 1021.81 1022.25 1022.59 1023.05 1023.53 1024.07 1024.55
1014.29 1014.37 1014.51 1014.69 1014.87 1015.03 1015.25 1015.45 1015.57 1015.75 1015.89 1016.05 1016.11 1016.35 1016.57 1016.63 1016.73 1016.95 1017.17 1017.45 1017.63 1017.83 1018.01 1018.11 1018.23 1018.45 1018.21 1018.29 1018.63 1019.09 1019.55 1019.97 1020.23 1020.43 1020.93 1021.55 1022.01 1022.39 1022.81 1023.29 1023.85 1024.35
1014.15 1014.25 1014.37 1014.61 1014.87 1015.07 1015.25 1015.35 1015.45 1015.51 1015.75 1015.97 1016.17 1016.39 1016.45 1016.63 1016.83 1016.91 1017.15 1017.35 1017.51 1017.69 1017.97 1018.23 1018.29 1018.47 1018.51 1018.63 1018.85 1019.15 1019.49 1019.85 1020.21 1020.41 1020.75 1021.21 1021.65 1022.07 1022.51 1023.01 1023.43 1023.83
1014.03 1014.15 1014.33 1014.67 1014.91 1015.11 1015.25 1015.33 1015.43 1015.63 1015.77 1015.89 1015.99 1016.13 1016.29 1016.41 1016.63 1016.85 1017.07 1017.29 1017.51 1017.71 1017.93 1018.25 1018.51 1018.53 1018.47 1018.69 1018.97 1019.27 1019.57 1019.93 1020.29 1020.57 1020.85 1021.23 1021.61 1021.89 1022.19 1022.57 1023.03 1023.39
1013.95 1014.21 1014.51 1014.83 1015.09 1015.29 1015.39 1015.51 1015.67 1015.75 1015.85 1016.05 1016.17 1016.33 1016.45 1016.59 1016.81 1017.03 1017.25 1017.45 1017.65 1017.81 1018.01 1018.19 1018.57 1018.73 1018.75 1018.91 1019.19 1019.41 1019.73 1020.21 1020.45 1020.63 1020.91 1021.23 1021.57 1021.87 1022.15 1022.45 1022.79 1023.11
1014.03 1014.31 1014.65 1014.97 1015.25 1015.43 1015.61 1015.77 1015.87 1015.97 1016.09 1016.21 1016.29 1016.43 1016.53 1016.63 1016.75 1016.91 1017.23 1017.51 1017.73 1017.91 1018.09 1018.35 1018.67 1018.79 1018.83 1018.99 1019.17 1019.33 1019.65 1020.15 1020.45 1020.73 1020.93 1021.15 1021.41 1021.71 1022.01 1022.33 1022.65 1022.93
1013.91 1014.17 1014.47 1014.85 1015.09 1015.15 1015.39 1015.71 1015.91 1016.03 1016.09 1016.11 1016.13 1016.31 1016.45 1016.61 1016.77 1017.01 1017.25 1017.45 1017.65 1017.83 1017.95 1018.15 1018.47 1018.63 1018.73 1018.91 1019.09 1019.15 1019.33 1019.71 1020.17 1020.51 1020.87 1021.09 1021.45 1021.77 1022.03 1022.31 1022.55 1022.75
1013.63 1013.97 1014.29 1014.63 1014.81 1015.01 1015.23 1015.43 1015.65 1015.81 1016.01 1016.11 1016.17 1016.29 1016.47 1016.71 1016.89 1017.07 1017.33 1017.53 1017.69 1017.85 1018.01 1018.19 1018.49 1018.73 1018.81 1018.89 1019.03 1019.19 1019.45 1019.71 1019.95 1020.33 1020.71 1021.13 1021.45 1021.85 1022.17 1022.39 1022.59 1022.75
1013.59 1013.87 1014.21 1014.49 1014.77 1015.13 1015.29 1015.39 1015.61 1015.79 1015.93 1016.03 1016.15 1016.25 1016.47 1016.69 1016.93 1017.13 1017.31 1017.53 1017.73 1017.91 1018.05 1018.21 1018.49 1018.81 1018.95 1018.97 1019.07 1019.27 1019.49 1019.69 1019.91 1020.11 1020.43 1020.93 1021.39 1021.65 1022.07 1022.49 1022.69 1022.81
Thickness
5708 5707 5705 5705 5704 5703 5702 5700 5699 5697 5696 5693 5692 5690 5688 5685 5681 5678 5675 5671 5667 5663 5661 5657 5653 5649 5645 5641 5638 5635 5631 5627 5623 5620 5617 5613 5609 5605 5601 5597 5593 5589
5707 5706 5705 5704 5703 5702 5701 5699 5698 5696 5695 5693 5690 5687 5684 5679 5675 5674 5672 5668 5664 5661 5658 5655 5650 5647 5643 5638 5634 5631 5627 5623 5618 5615 5612 5608 5604 5600 5596 5591 5587 5583
5707 5706 5705 5703 5702 5701 5699 5697 5695 5694 5692 5689 5686 5683 5679 5674 5670 5669 5668 5666 5662 5658 5655 5651 5647 5643 5639 5635 5631 5626 5623 5619 5613 5609 5606 5602 5598 5594 5589 5585 5581 5578
5705 5705 5704 5703 5701 5699 5697 5694 5692 5691 5688 5685 5682 5679 5675 5671 5666 5664 5663 5661 5658 5654 5650 5647 5643 5639 5634 5630 5626 5621 5618 5614 5608 5604 5599 5595 5592 5588 5584 5580 5576 5572
5702 5701 5700 5698 5697 5694 5692 5690 5689 5688 5685 5682 5679 5675 5672 5667 5662 5659 5656 5654 5652 5649 5645 5642 5638 5634 5630 5625 5621 5616 5611 5606 5602 5598 5594 5588 5585 5582 5577 5575 5571 5567
5698 5696 5694 5692 5691 5689 5688 5687 5686 5684 5682 5679 5676 5672 5668 5663 5659 5656 5652 5649 5646 5643 5640 5636 5632 5629 5625 5620 5614 5609 5604 5600 5596 5592 5587 5582 5579 5576 5572 5569 5566 5561
5694 5692 5690 5688 5687 5685 5685 5683 5681 5680 5678 5675 5672 5668 5664 5660 5655 5652 5648 5645 5641 5639 5636 5632 5628 5623 5619 5615 5609 5603 5598 5593 5590 5586 5581 5576 5573 5570 5566 5563 5560 5555
5690 5688 5686 5684 5683 5681 5680 5679 5677 5675 5672 5670 5667 5664 5660 5656 5652 5648 5644 5641 5638 5635 5631 5626 5623 5619 5615 5611 5604 5597 5592 5587 5584 5580 5574 5569 5567 5564 5560 5557 5553 5549
5684 5682 5681 5679 5677 5676 5675 5673 5671 5669 5667 5665 5662 5658 5655 5651 5647 5643 5639 5636 5633 5630 5627 5622 5618 5613 5610 5607 5600 5593 5588 5582 5578 5575 5569 5565 5562 5559 5555 5551 5548 5544
5678 5676 5674 5673 5671 5670 5668 5666 5664 5662 5660 5658 5655 5651 5648 5644 5641 5637 5634 5631 5628 5625 5622 5617 5613 5609 5605 5601 5597 5591 5585 5579 5575 5570 5565 5562 5558 5554 5551 5547 5544 5539
5671 5670 5668 5666 5664 5663 5661 5658 5656 5655 5653 5651 5648 5644 5641 5638 5634 5631 5628 5625 5623 5619 5617 5613 5608 5605 5602 5597 5592 5587 5581 5576 5571 5567 5562 5558 5554 5550 5547 5544 5540 5536
5663 5662 5660 5659 5657 5656 5654 5652 5649 5647 5646 5643 5641 5639 5635 5631 5628 5626 5623 5621 5618 5614 5611 5607 5603 5600 5598 5594 5589 5583 5577 5572 5567 5563 5558 5553 5549 5545 5543 5540 5536 5532
5656 5654 5653 5652 5650 5649 5647 5645 5643 5640 5638 5636 5634 5631 5628 5625 5622 5619 5617 5616 5614 5610 5606 5602 5598 5594 5590 5589 5585 5579 5573 5567 5563 5559 5554 5549 5545 5541 5538 5535 5532 5527
5649 5648 5647 5645 5643 5641 5640 5638 5635 5633 5631 5628 5625 5623 5621 5618 5616 5613 5610 5608 5606 5605 5603 5599 5594 5588 5585 5582 5578 5574 5569 5563 5559 5556 5551 5545 5540 5536 5533 5530 5526 5522
5642 5640 5639 5637 5636 5635 5633 5631 5629 5626 5624 5622 5619 5617 5614 5612 5610 5607 5604 5602 5598 5596 5595 5593 5589 5585 5582 5578 5574 5569 5564 5559 5555 5551 5547 5541 5535 5531 5527 5523 5520 5515
5634 5632 5630 5629 5627 5626 5625 5624 5622 5619 5617 5615 5613 5610 5608 5605 5602 5599 5597 5595 5592 5589 5587 5585 5583 5580 5577 5573 5570 5565 5560 5555 5550 5546 5542 5537 5531 5526 5521 5516 5513 5508
5627 5625 5623 5621 5619 5617 5616 5614 5612 5611 5610 5607 5605 5603 5600 5597 5594 5592 5589 5586 5584 5581 5579 5578 5576 5574 5571 5566 5562 5559 5554 5550 5547 5542 5537 5532 5527 5522 5516 5511 5506 5501
5620 5618 5616 5614 5612 5609 5607 5606 5604 5602 5601 5598 5597 5594 5592 5590 5587 5585 5582 5578 5576 5573 5571 5570 5568 5566 5566 5562 5558 5553 5548 5545 5542 5538 5532 5526 5521 5517 5512 5507 5500 5495
5614 5613 5610 5608 5606 5604 5601 5599 5597 5595 5594 5591 5589 5586 5584 5583 5580 5578 5575 5571 5569 5566 5564 5562 5560 5557 5557 5555 5552 5547 5542 5539 5536 5532 5527 5521 5516 5512 5507 5502 5496 5490
5609 5608 5605 5602 5600 5597 5595 5594 5592 5590 5587 5585 5583 5580 5578 5577 5574 5572 5569 5566 5563 5560 5557 5555 5552 5550 5549 5547 5544 5540 5536 5532 5528 5525 5522 5517 5512 5507 5502 5497 5492 5487
5604 5602 5599 5596 5593 5591 5589 5587 5585 5583 5581 5578 5577 5575 5572 5571 5568 5566 5562 5559 5557 5554 5551 5548 5545 5543 5542 5539 5535 5532 5528 5524 5521 5517 5514 5510 5505 5501 5497 5493 5488 5484
5598 5595 5592 5589 5585 5582 5581 5578 5577 5575 5573 5571 5569 5567 5566 5563 5560 5558 5555 5552 5550 5547 5545 5542 5538 5535 5534 5531 5527 5524 5520 5516 5513 5510 5506 5502 5498 5495 5491 5487 5483 5479
5592 5589 5585 5581 5578 5575 5573 5570 5568 5567 5565 5563 5562 5559 5558 5556 5554 5551 5548 5545 5543 5540 5538 5535 5531 5528 5526 5523 5519 5517 5514 5510 5505 5502 5499 5496 5492 5489 5485 5482 5478 5475
5586 5583 5580 5576 5573 5571 5568 5564 5562 5560 5558 5557 5555 5554 5551 5549 5547 5544 5541 5539 5536 5534 5531 5528 5524 5521 5519 5516 5513 5511 5509 5505 5500 5496 5493 5489 5486 5482 5479 5476 5472 5469
5581 5578 5574 5570 5568 5565 5563 5560 5557 5555 5553 5551 5549 5547 5545 5542 5540 5538 5535 5532 5529 5527 5525 5522 5517 5513 5511 5509 5507 5504 5502 5499 5495 5492 5488 5484 5480 5476 5472 5469 5465 5462
5575 5571 5568 5564 5561 5558 5556 5554 5551 5549 5546 5544 5543 5541 5538 5536 5533 5530 5528 5525 5522 5520 5517 5515 5510 5506 5503 5502 5499 5497 5495 5492 5490 5487 5484 5480 5475 5471 5466 5462 5458 5455